Location: Newark
(52.4787°S, 179.0532°W)
Time: 06:30:56
(UTC+00:00)

Transit 2A Rocket - Pass Details

Date: 29 November 2019
Orbit: 594 x 909 km, 66.7° (Epoch: 05 December)

Event Time Altitude Azimuth Distance (km) Brightness Sun altitude
Rises 18:02:20 0° 6° (N) 3,349 8.3 19.6°
Reaches altitude 10° 18:05:07 10° 19° (NNE) 2,472 7.8 20.0°
Maximum altitude 18:09:40 25° 72° (ENE) 1,724 8.3 20.7°
Drops below altitude 10° 18:14:27 10° 123° (ESE) 2,604 9.1 21.4°
Sets 18:17:26 0° 135° (SE) 3,568 9.3 21.8°
